sat.trackr.live / text

‹ back to catalog

STARLINK-35690

NORAD 66383 · 2025-257D

PAYLOAD ACTIVE UNKNOWN

§ Identity

Operator
Country
US
Launch date
2025-11-09
Launch site
AFETR
Launch vehicle
Mass (kg)
RCS (m²)

Purposes: comms

External: N2YO · Heavens-Above · Gunter

§ Orbital elements

Epoch: 2026-05-25T04:56:08.921184Z

Period
93.85 min
Inclination
53.1586°
Eccentricity
0.0001430
Mean motion
15.34408662 rev/d
Perigee alt
461.7 km
Apogee alt
463.7 km
Semi-major
6,840.8 km
B*
7.0973e-4
RAAN
220.5401°
Arg perigee
86.4061°
Mean anomaly
273.7106°
Rev number
3,146

§ Raw data

STARLINK-356901 66383U 25257D   26145.20565881  .00023686  00000+0  70973-3 0  99932 66383  53.1586 220.5401 0001430  86.4061 273.7106 15.34408662 31462

JSON: /api/v1/satellites/66383 · /tle

For live sub-satellite position, see the globe view (requires WebGL).

§ Visibility from observer

Set your observer location to see the next 7 days of passes ≥ 10°. The values pass through the URL so the page stays shareable.

No JS? Fill the form by hand. The geolocation button needs JavaScript.